South Lake Tahoe, CA

7:45 PM PDT on August 18, 2017 (GMT -0700)
Lake Tahoe

Weather History for KTVL - May, 2013

Change the Weather History Date:

Wednesday, May 15, 2013

  Actual Average Record
Temperature  
Mean Temperature 53 °F 48 °F  
Max Temperature 70 °F 63 °F 76 °F (2014)
Min Temperature 36 °F 32 °F 24 °F (1968)
Degree Days  
Heating Degree Days 12 17  
Month to date heating degree days 209 285  
Since 1 July heating degree days 6593 7175  
Cooling Degree Days 0 0  
Month to date cooling degree days 0 0  
Year to date cooling degree days 0 0  
Growing Degree Days 3 (Base 50)    
Moisture  
Dew Point 26 °F    
Average Humidity 48    
Maximum Humidity 82    
Minimum Humidity 13    
Precipitation  
Precipitation 0.00 in - 0.46 in (2011)
Month to date precipitation 1.57  
Year to date precipitation 4.51  
Sea Level Pressure  
Sea Level Pressure 30.01 in    
Wind  
Wind Speed 5 mph (SSW)    
Max Wind Speed 24 mph    
Max Gust Speed 35 mph    
Visibility 10 miles    
Events      
T = Trace of Precipitation, MM = Missing Value Source: NWS Daily Summary

Daily Weather History Graph

Daily Weather History Graph

Search for Another Location

Airport or City:

Trip Planner

Search our weather history database for the weather conditions in past years. The results will help you decide how hot, cold, wet, or windy it might be!

Date:

Astronomy

May. 15, 2013 Rise Set
Actual Time 5:47 AM PDT 8:06 PM PDT
Civil Twilight 5:17 AM PDT 8:36 PM PDT
Nautical Twilight 4:40 AM PDT 9:13 PM PDT
Astronomical Twilight 3:59 AM PDT 9:54 PM PDT
Moon 10:27 AM PDT (5/15) No Moon Set
Length of Visible Light 15h 18m
Length of Day
14h 18m
Waxing Crescent, 28% of the Moon is Illuminated
May 15
Waxing Crescent
May 17
First Quarter
May 24
Full
May 31
Last Quarter
Jun 8
New

Hourly Weather History & Observations

Time (PDT) Temp. Windchill Dew Point Humidity Pressure Visibility Wind Dir Wind Speed Gust Speed Precip Events Conditions
12:53 AM 44.1 °F - 37.0 °F 76% 30.04 in 10.0 mi Calm Calm - N/A   Clear
1:53 AM 42.1 °F 39.2 °F 35.1 °F 76% 30.04 in 10.0 mi South 4.6 mph - N/A   Clear
2:53 AM 39.9 °F - 34.0 °F 79% 30.04 in 10.0 mi Calm Calm - N/A   Clear
3:53 AM 37.9 °F - 32.0 °F 79% 30.04 in 10.0 mi Calm Calm - N/A   Clear
4:53 AM 37.0 °F - 32.0 °F 82% 30.04 in 10.0 mi Calm Calm - N/A   Clear
5:53 AM 37.0 °F - 30.9 °F 79% 30.04 in 10.0 mi Calm Calm - N/A   Clear
6:53 AM 37.9 °F 35.5 °F 32.0 °F 79% 30.04 in 10.0 mi South 3.5 mph - N/A   Clear
7:53 AM 48.9 °F - 37.0 °F 64% 30.02 in 10.0 mi Calm Calm - N/A   Clear
8:53 AM 63.0 °F - 28.0 °F 27% 29.99 in 10.0 mi South 10.4 mph - N/A   Clear
9:53 AM 64.0 °F - 21.0 °F 19% 29.99 in 10.0 mi SSW 12.7 mph 25.3 mph N/A   Clear
10:53 AM 66.0 °F - 19.9 °F 17% 29.99 in 10.0 mi SSW 18.4 mph 33.4 mph N/A   Clear
11:53 AM 66.9 °F - 21.0 °F 17% 29.99 in 10.0 mi SSW 11.5 mph 24.2 mph N/A   Clear
12:53 PM 69.1 °F - 24.1 °F 18% 29.98 in 10.0 mi SSW 16.1 mph 23.0 mph N/A   Clear
1:53 PM 68.0 °F - 17.1 °F 14% 29.99 in 10.0 mi SSW 9.2 mph 25.3 mph N/A   Clear
2:53 PM 68.0 °F - 15.1 °F 13% 30.00 in 10.0 mi SSW 16.1 mph 25.3 mph N/A   Clear
3:53 PM 66.0 °F - 15.1 °F 14% 30.01 in 10.0 mi SSW 10.4 mph 25.3 mph N/A   Clear
4:53 PM 64.0 °F - 17.1 °F 16% 30.00 in 10.0 mi SW 8.1 mph 17.3 mph N/A   Clear
5:53 PM 63.0 °F - 15.1 °F 16% 30.00 in 10.0 mi SSW 13.8 mph 20.7 mph N/A   Clear
6:53 PM 59.0 °F - 12.9 °F 16% 30.01 in 10.0 mi SSW 9.2 mph - N/A   Clear
7:53 PM 55.0 °F - 17.1 °F 23% 30.01 in 10.0 mi SSW 5.8 mph - N/A   Clear
8:53 PM 52.0 °F - 26.1 °F 37% 29.98 in 10.0 mi SSW 3.5 mph - N/A   Clear
9:53 PM 50.0 °F - 35.1 °F 57% 29.99 in 10.0 mi SSW 4.6 mph - N/A   Clear
10:53 PM 48.9 °F - 33.1 °F 54% 29.98 in 10.0 mi SW 5.8 mph - N/A   Clear
11:53 PM 48.9 °F - 30.0 °F 48% 29.96 in 10.0 mi SSW 6.9 mph - N/A   Clear